Temperature
12 12 12 12 12 12 12 12 13 13 13 13 13 14 14 14 14 14 14 15 15 15 15 15 15 15 15 15 15 15 15 15 15 15 15 15 15 15 15 15 15 15 15
12 12 12 12 12 12 12 12 12 13 13 13 13 13 13 13 14 14 14 14 14 15 15 15 15 15 15 15 15 15 15 15 15 15 15 15 15 15 15 14 14 14 14
12 12 12 12 12 12 12 12 12 12 12 12 13 13 13 13 13 13 14 14 14 14 14 14 14 14 14 14 14 14 14 14 14 15 14 14 14 14 14 14 14 14 14
12 12 12 11 12 12 12 12 12 12 12 12 12 12 12 13 13 13 13 13 14 14 14 14 14 14 14 14 14 14 14 14 14 14 14 14 14 13 13 13 13 13 13
12 12 11 11 11 11 12 12 12 12 12 12 12 12 12 12 13 13 13 13 13 13 13 14 14 14 14 14 14 14 14 14 14 14 13 13 13 13 13 13 13 13 12
12 11 11 11 11 11 11 11 11 11 12 12 12 12 12 12 12 12 13 13 13 13 13 13 13 14 14 14 14 14 14 14 14 13 13 13 13 13 13 13 13 13 12
12 11 11 11 11 11 11 11 11 11 12 12 12 12 12 12 12 12 12 12 12 13 13 13 13 13 13 14 13 13 13 13 13 14 13 13 13 13 13 13 13 12 12
12 11 11 11 11 11 11 11 11 11 11 11 12 12 12 12 12 12 12 12 12 12 12 12 13 13 13 13 13 13 13 13 13 13 13 13 13 13 13 13 12 12 12
12 11 11 11 11 11 11 11 11 11 11 11 11 12 12 12 12 12 12 12 12 12 12 12 13 13 13 13 13 13 13 13 13 13 13 13 13 13 13 12 12 12 12
11 11 11 11 11 11 11 11 11 11 11 11 11 11 12 12 12 12 12 12 12 12 12 12 12 13 13 13 13 13 12 12 12 12 12 12 12 12 12 12 12 12 12
11 11 11 11 11 11 11 11 11 11 11 11 11 11 11 12 12 12 12 12 12 12 12 12 12 12 12 13 12 12 12 12 12 12 12 12 12 12 12 12 12 12 12
12 11 11 11 11 11 11 11 11 11 11 11 11 11 11 11 11 11 12 12 12 12 12 12 12 12 12 13 13 12 12 12 12 12 11 11 11 11 11 11 11 11 11
12 12 11 11 11 11 11 11 11 11 11 10 11 11 11 11 11 11 11 12 12 12 12 12 12 12 12 12 12 12 12 12 12 11 11 11 11 11 11 11 11 11 11
12 12 12 11 11 11 11 11 11 11 11 11 10 10 10 11 11 11 11 11 11 12 12 12 12 12 12 12 12 12 12 11 11 11 11 11 11 11 11 10 10 10 10
13 12 12 12 11 11 11 11 11 11 11 11 11 11 11 11 11 11 11 11 11 11 11 11 11 11 11 11 11 11 11 11 11 11 11 10 10 10 10 10 10 9 9
13 12 12 12 12 11 11 11 11 11 11 11 11 11 11 11 11 11 11 11 11 11 11 11 11 11 11 11 11 11 11 11 10 10 10 10 10 10 10 9 9 9 9
13 12 12 12 12 11 11 11 11 11 11 11 11 11 11 11 11 11 11 11 11 11 11 10 10 10 10 10 10 10 10 10 10 10 10 10 10 9 9 9 9 9 9
13 13 12 12 12 12 11 11 11 11 11 11 11 11 11 11 11 11 10 10 10 10 10 10 10 10 10 10 10 10 10 10 10 10 10 9 9 9 9 9 9 9 8
13 13 12 12 12 12 12 11 11 11 11 11 11 11 11 11 11 10 10 10 10 10 10 10 10 10 10 10 10 10 10 10 10 9 9 9 9 9 9 9 9 8 8
13 13 13 12 12 12 12 12 12 11 11 11 11 11 11 11 10 10 10 10 10 10 10 10 10 10 10 10 10 10 10 10 9 9 9 9 9 9 9 8 8 8 8
13 13 13 13 12 12 12 12 12 12 11 11 11 11 11 11 10 10 10 10 10 10 10 10 10 10 10 10 10 10 9 9 9 9 9 9 9 9 8 8 8 8 8
13 13 13 13 13 12 12 12 12 12 12 11 11 11 11 11 11 10 10 10 10 10 10 10 10 10 10 10 10 10 9 9 9 9 9 8 8 8 8 8 8 8 8
13 13 13 13 13 12 12 12 12 12 12 12 12 11 11 11 11 11 11 11 10 10 10 10 10 10 10 10 10 10 10 9 9 9 9 8 8 8 8 8 8 8 7
13 13 13 13 13 13 12 12 12 12 12 12 12 12 11 11 11 11 11 11 11 11 11 11 11 11 11 11 10 10 10 10 10 9 9 8 8 8 8 8 8 7 7
13 13 13 13 13 12 12 12 12 12 12 12 12 12 12 12 11 11 11 11 11 11 11 11 11 11 11 11 11 11 10 10 10 10 9 9 8 8 8 8 8 7 7
13 13 13 12 12 12 12 12 12 12 12 12 12 12 12 12 12 11 11 11 11 11 11 11 11 11 11 11 11 11 11 10 10 10 10 9 9 8 8 8 7 7 7
Wind_Speed
9 8 9 9 8 9 8 8 8 8 7 7 6 5 4 3 1 0 2 3 4 5 6 8 8 7 6 5 5 5 4 4 4 2 2 2 2 4 4 6 8 9 8
8 8 9 9 9 9 9 9 8 8 8 7 7 6 5 4 3 2 1 1 3 4 5 6 7 7 7 6 5 5 5 5 5 5 3 2 3 3 4 4 6 7 9
8 8 9 10 10 10 9 9 9 9 9 8 8 8 6 5 5 4 3 2 2 2 3 5 6 7 7 6 6 6 5 5 4 5 4 3 2 3 4 4 5 5 8
8 9 9 10 10 9 10 10 9 9 9 9 8 8 8 6 6 5 4 4 4 3 2 3 4 5 6 7 6 6 6 6 5 6 5 4 3 4 4 4 4 3 4
8 9 9 9 9 9 9 9 9 9 9 8 8 9 9 8 7 7 5 5 4 4 4 4 5 6 7 6 5 5 6 5 5 6 5 4 4 4 4 4 5 5 4
8 8 8 9 9 9 9 9 9 9 9 9 9 9 9 8 11 11 7 4 4 5 5 5 5 7 9 10 10 9 7 7 6 5 4 5 4 4 4 5 5 5 3
8 8 8 9 9 9 10 9 9 8 8 9 9 9 8 10 14 12 10 6 5 5 5 4 5 6 7 8 10 11 10 9 8 7 7 5 5 4 5 4 4 4 4
8 8 8 8 8 8 9 9 8 7 8 8 9 9 9 12 15 13 11 8 8 8 8 7 8 7 7 8 10 10 9 8 7 6 6 6 6 4 4 5 6 6 6
7 7 7 8 8 8 9 8 7 7 7 7 7 9 9 11 16 14 11 7 9 10 10 10 9 10 11 11 10 11 10 8 12 14 13 13 12 11 8 6 6 6 5
7 7 7 6 7 7 7 7 6 6 6 6 8 9 10 10 15 16 11 6 7 7 8 9 12 11 11 10 8 9 9 7 8 9 9 9 9 9 8 5 5 5 5
5 6 6 6 6 6 6 6 6 6 6 7 7 8 9 10 13 16 13 7 6 7 7 7 7 12 12 12 9 7 7 6 7 7 6 6 5 5 5 7 6 5 5
3 3 4 5 6 7 6 6 6 6 6 7 7 7 7 8 10 12 14 13 9 8 6 6 6 11 12 11 8 8 9 8 6 7 6 6 6 6 6 7 12 13 10
2 2 3 4 5 6 7 7 7 7 6 6 6 6 6 7 8 13 13 14 13 8 6 7 7 8 9 9 10 10 7 6 6 7 6 5 5 5 5 6 9 12 13
1 2 3 4 5 6 6 6 6 6 6 6 6 5 5 6 7 7 5 6 7 7 5 6 8 9 8 7 7 7 6 6 6 6 5 5 4 4 5 4 5 5 6
1 2 3 4 3 4 5 5 5 4 4 4 5 5 5 5 6 8 6 5 4 4 2 2 3 4 4 4 5 5 5 5 5 4 5 4 4 4 3 3 4 4 5
2 2 2 2 2 1 4 4 6 5 5 6 7 5 4 5 5 8 9 9 8 7 4 4 4 4 4 4 4 4 5 5 4 4 4 4 4 4 3 2 3 4 5
0 1 1 1 1 0 1 3 3 2 2 4 5 6 5 4 5 7 7 8 7 6 4 4 4 4 4 4 4 4 4 4 3 4 4 4 4 4 3 3 3 4 4
1 2 1 1 1 1 0 0 1 3 3 2 1 1 2 2 4 5 5 4 3 3 3 4 4 4 4 4 4 4 3 3 3 3 3 3 3 3 3 3 3 4 4
2 2 2 0 1 1 1 1 1 1 1 3 4 2 2 2 3 4 4 1 1 2 3 3 3 3 3 3 4 3 3 3 3 3 3 3 2 3 3 4 4 4 3
1 2 2 2 3 3 3 2 2 1 1 2 3 3 1 2 2 1 0 1 2 2 3 3 3 3 3 3 3 2 2 2 2 2 2 2 2 2 3 4 4 3 2
4 5 7 4 4 3 2 2 3 3 2 2 3 4 3 1 1 2 1 1 1 2 2 3 3 3 2 2 1 1 2 2 2 2 2 2 2 2 2 3 3 3 4
4 4 5 5 4 4 3 2 2 3 3 4 4 4 4 3 2 2 2 2 2 2 2 2 2 3 2 2 1 0 1 2 2 2 2 2 2 2 2 2 2 3 3
4 5 4 5 4 5 4 4 4 4 4 4 5 5 5 4 4 3 3 3 3 3 3 2 2 3 4 4 2 1 1 2 2 2 2 2 2 2 2 2 2 3 3
5 6 5 4 4 5 5 5 5 5 5 5 5 5 6 5 4 4 4 4 4 4 4 4 4 5 6 5 4 3 2 3 4 2 1 1 1 1 2 2 3 3 3
6 6 5 5 4 5 5 5 5 5 5 5 5 5 5 5 6 5 5 5 5 5 6 7 6 6 7 8 8 7 6 5 4 2 1 0 1 1 1 3 3 3 3
6 6 5 5 5 5 5 5 5 5 5 5 5 5 5 5 5 6 6 6 6 5 5 7 9 10 10 9 10 11 11 9 7 4 2 1 1 2 2 2 3 3 3
Wind_Direction
359 0 2 360 0 360 2 5 4 3 9 9 5 3 11 17 9 188 194 189 193 194 188 186 183 178 181 184 178 175 176 165 166 152 123 102 100 104 105 121 134 133 137
3 4 4 4 8 7 6 7 10 11 14 17 13 14 21 26 25 45 65 145 184 189 185 179 181 175 173 172 167 168 171 166 159 159 141 138 127 125 116 108 113 119 118
14 12 11 10 10 7 5 5 14 15 15 22 22 21 24 28 29 33 35 53 98 139 160 170 175 167 169 165 162 161 159 157 146 144 143 137 122 118 107 101 102 107 115
24 20 14 10 9 7 7 11 15 16 19 21 24 23 27 34 34 32 35 49 64 78 112 133 141 150 160 158 157 154 151 152 149 143 136 132 125 125 122 121 109 103 109
30 24 14 11 11 10 12 18 19 18 21 23 26 29 27 31 32 31 34 49 61 73 80 94 106 114 122 135 142 148 149 147 143 138 134 129 132 134 137 130 125 116 96
34 27 15 16 16 10 13 21 22 20 20 24 28 30 30 29 28 35 41 48 67 83 86 92 105 110 113 113 118 124 133 138 139 135 130 135 137 132 130 133 135 127 107
30 28 20 19 18 13 15 18 20 22 23 26 26 30 32 27 28 33 42 54 66 76 85 98 102 105 115 116 110 102 95 102 118 125 129 135 134 141 137 137 136 124 121
27 25 24 22 20 15 15 16 18 23 24 26 27 27 30 28 26 30 41 52 60 61 62 72 82 79 84 107 104 93 83 75 92 110 119 118 120 133 137 133 127 112 104
26 23 24 22 19 18 16 13 16 23 25 26 32 31 32 28 27 34 45 55 60 62 60 59 70 72 70 94 104 106 100 89 82 95 101 102 95 91 96 110 115 121 120
23 23 21 19 22 23 16 13 14 20 25 34 40 38 36 34 32 36 43 58 64 62 62 61 60 67 69 81 97 106 107 109 110 103 96 95 92 90 95 109 127 130 126
26 25 20 14 21 30 20 16 17 20 27 37 45 45 42 39 38 41 43 57 64 66 63 61 56 62 69 73 81 92 107 113 111 106 99 92 85 77 74 77 85 112 116
27 27 32 29 25 28 22 19 20 20 29 36 41 43 42 41 41 42 49 58 64 68 68 68 62 66 72 74 75 80 92 95 98 95 90 83 81 76 71 75 76 76 83
18 39 47 47 53 41 27 29 25 19 25 33 34 37 41 40 37 41 53 62 64 72 76 78 74 72 71 67 65 71 78 86 93 95 93 88 86 88 81 78 76 76 71
6 49 72 55 55 58 43 35 37 21 17 21 31 34 37 40 28 20 31 57 71 74 79 74 68 70 72 69 63 64 66 80 95 100 103 101 93 86 87 96 100 95 78
350 67 88 89 71 78 80 48 47 57 39 21 14 24 33 36 12 16 33 34 41 50 63 85 74 74 79 75 72 69 69 75 84 94 102 104 100 95 90 90 104 105 104
28 49 70 105 102 104 127 109 51 64 64 56 48 50 64 54 28 28 30 32 33 28 54 77 75 73 74 79 83 76 70 73 81 89 98 110 115 117 110 96 101 112 115
326 82 54 66 85 6 119 141 150 126 57 44 49 57 64 43 29 22 18 12 13 30 63 76 77 74 73 76 82 85 82 76 73 82 93 100 107 113 118 116 108 107 114
245 138 173 210 216 240 69 86 137 154 164 172 136 83 76 38 11 1 3 7 27 50 66 78 79 75 72 74 82 89 88 80 75 79 82 88 96 108 116 118 112 113 122
237 183 174 208 232 222 205 217 145 117 142 143 148 173 217 242 298 319 341 4 72 85 82 80 81 83 81 79 77 80 88 89 87 85 86 81 85 98 106 109 109 106 112
221 139 164 252 255 224 213 208 185 183 181 134 133 141 181 208 223 226 296 42 72 87 98 101 89 85 85 88 89 89 96 102 104 109 118 107 91 101 117 124 133 140 135
223 190 189 221 252 252 230 215 193 186 187 168 137 136 152 252 215 154 147 126 112 117 114 114 117 107 97 94 108 156 151 145 137 123 123 127 117 109 120 129 132 131 126
242 215 192 208 220 229 228 224 213 201 201 185 159 168 184 226 238 195 168 163 149 135 129 136 146 141 137 150 181 185 149 143 141 135 137 139 132 130 123 125 135 136 138
241 250 225 209 209 202 205 229 228 218 212 199 183 174 184 210 208 196 181 167 158 157 156 161 163 159 170 182 181 148 147 159 146 140 141 145 156 168 164 161 155 148 152
228 245 244 224 210 204 207 220 225 218 212 206 198 190 187 192 197 196 188 176 172 177 180 183 189 190 181 176 177 165 119 103 96 80 95 141 167 172 165 161 165 168 154
217 238 242 234 222 215 219 225 228 227 217 208 206 199 191 188 190 193 191 184 181 187 188 189 195 205 204 191 182 170 163 153 140 100 69 55 220 199 185 178 176 179 172
209 228 238 234 229 225 225 229 232 231 225 216 209 204 196 193 193 193 189 186 186 192 193 197 203 204 206 208 199 185 180 180 185 191 194 280 246 216 199 204 201 191 186
Height
1515 1511 1507 1503 1499 1495 1492 1490 1487 1484 1482 1480 1479 1478 1477 1477 1478 1478 1480 1482 1484 1487 1490 1493 1496 1500 1503 1507 1511 1515 1519 1523 1526 1530 1533 1535 1538 1540 1543 1545 1546 1548 1550
1516 1512 1508 1505 1501 1497 1494 1491 1488 1486 1483 1481 1480 1478 1477 1477 1476 1477 1478 1480 1481 1484 1487 1489 1492 1495 1499 1503 1507 1510 1514 1518 1522 1526 1529 1532 1535 1538 1540 1542 1544 1546 1547
1517 1513 1510 1506 1502 1499 1496 1493 1490 1488 1486 1483 1481 1480 1478 1477 1477 1477 1477 1478 1480 1482 1484 1486 1489 1492 1496 1500 1503 1507 1511 1515 1518 1522 1526 1529 1532 1535 1538 1540 1542 1544 1545
1519 1515 1511 1508 1504 1501 1498 1495 1492 1490 1488 1485 1483 1481 1479 1478 1478 1477 1477 1478 1479 1480 1482 1485 1488 1491 1494 1497 1501 1505 1508 1512 1516 1519 1523 1527 1530 1532 1535 1537 1540 1542 1544
1520 1517 1513 1510 1507 1504 1500 1498 1495 1492 1490 1488 1486 1484 1482 1480 1479 1478 1478 1479 1479 1480 1483 1485 1487 1490 1493 1496 1500 1503 1507 1510 1514 1517 1521 1524 1528 1530 1533 1536 1538 1541 1543
1522 1519 1515 1512 1509 1506 1503 1500 1498 1495 1493 1491 1489 1487 1485 1483 1482 1480 1480 1479 1480 1481 1483 1485 1488 1491 1493 1497 1500 1503 1506 1509 1513 1516 1520 1523 1526 1529 1532 1534 1537 1540 1542
1524 1521 1518 1515 1512 1509 1506 1504 1501 1499 1497 1494 1492 1491 1489 1487 1485 1483 1482 1482 1483 1484 1485 1487 1489 1492 1494 1498 1500 1503 1507 1510 1513 1516 1519 1523 1525 1528 1531 1534 1537 1539 1541
1525 1523 1520 1517 1514 1512 1509 1507 1504 1502 1500 1498 1496 1494 1492 1491 1489 1487 1486 1486 1486 1487 1488 1489 1491 1493 1496 1499 1501 1504 1507 1510 1513 1516 1520 1522 1525 1528 1531 1533 1536 1538 1541
1527 1525 1522 1520 1517 1514 1512 1510 1508 1506 1503 1501 1500 1498 1496 1495 1493 1492 1491 1490 1490 1491 1492 1493 1495 1497 1499 1501 1503 1506 1509 1512 1515 1518 1521 1523 1526 1528 1531 1533 1535 1537 1540
1529 1527 1525 1522 1520 1517 1515 1513 1511 1509 1507 1505 1503 1502 1500 1499 1497 1496 1495 1495 1495 1496 1497 1498 1500 1501 1503 1505 1507 1509 1511 1514 1517 1520 1522 1525 1527 1529 1532 1534 1535 1537 1539
1531 1529 1527 1525 1523 1520 1518 1516 1514 1512 1510 1509 1507 1506 1504 1503 1502 1501 1500 1500 1500 1501 1502 1503 1504 1506 1507 1509 1511 1513 1515 1517 1520 1522 1524 1526 1529 1531 1532 1534 1536 1538 1539
1532 1530 1529 1527 1525 1523 1521 1519 1517 1515 1513 1512 1511 1510 1508 1507 1506 1505 1505 1505 1505 1505 1506 1507 1509 1510 1511 1513 1515 1516 1518 1520 1522 1524 1526 1528 1530 1532 1533 1535 1536 1538 1539
1534 1532 1531 1529 1527 1525 1523 1521 1519 1517 1516 1515 1514 1513 1512 1511 1510 1509 1509 1509 1509 1509 1510 1511 1512 1514 1515 1516 1517 1519 1521 1523 1524 1526 1528 1530 1532 1533 1534 1536 1537 1538 1539
1535 1533 1532 1531 1529 1527 1525 1523 1522 1520 1519 1518 1516 1515 1515 1514 1513 1513 1513 1513 1513 1513 1514 1515 1516 1517 1518 1519 1520 1522 1523 1525 1526 1528 1529 1531 1533 1534 1535 1536 1537 1538 1539
1535 1534 1533 1532 1530 1529 1528 1526 1524 1523 1522 1520 1519 1518 1518 1517 1516 1516 1516 1516 1516 1517 1517 1518 1519 1520 1521 1522 1523 1524 1526 1527 1528 1530 1531 1532 1534 1535 1536 1537 1538 1539 1540
1535 1534 1533 1533 1531 1531 1529 1528 1527 1526 1524 1523 1522 1521 1520 1520 1519 1519 1519 1519 1519 1520 1520 1521 1522 1522 1523 1524 1525 1526 1527 1529 1530 1531 1532 1533 1534 1536 1537 1538 1539 1539 1540
1534 1534 1533 1533 1532 1532 1531 1530 1529 1528 1527 1525 1524 1523 1523 1522 1522 1521 1521 1521 1522 1522 1523 1523 1524 1524 1525 1526 1527 1528 1529 1530 1531 1532 1533 1534 1535 1536 1537 1538 1539 1540 1540
1533 1533 1533 1532 1532 1532 1531 1530 1530 1529 1528 1527 1526 1525 1525 1524 1524 1524 1523 1524 1524 1524 1524 1525 1525 1526 1527 1527 1528 1529 1530 1531 1532 1533 1534 1535 1536 1537 1538 1538 1539 1540 1540
1532 1531 1531 1531 1531 1531 1531 1531 1530 1530 1529 1528 1527 1527 1526 1526 1526 1525 1525 1525 1525 1526 1526 1526 1526 1527 1527 1528 1529 1529 1530 1531 1532 1533 1534 1535 1536 1537 1537 1538 1539 1539 1540
1529 1529 1529 1530 1530 1530 1530 1530 1530 1530 1529 1529 1528 1527 1527 1527 1526 1526 1526 1526 1526 1526 1526 1527 1527 1527 1527 1528 1529 1529 1530 1531 1532 1533 1533 1534 1535 1536 1537 1537 1538 1538 1539
1526 1527 1527 1527 1528 1528 1529 1529 1529 1529 1529 1528 1528 1527 1527 1527 1527 1526 1526 1526 1526 1526 1526 1526 1527 1527 1527 1528 1528 1529 1529 1530 1531 1532 1532 1533 1534 1535 1536 1536 1537 1538 1538
1523 1524 1525 1525 1525 1526 1527 1527 1527 1527 1527 1527 1527 1527 1526 1526 1526 1526 1526 1526 1525 1525 1525 1526 1526 1526 1526 1527 1527 1528 1528 1529 1530 1530 1531 1532 1533 1533 1534 1535 1535 1536 1537
1520 1521 1522 1522 1523 1523 1524 1524 1525 1525 1525 1525 1525 1525 1525 1525 1525 1525 1525 1524 1524 1524 1524 1524 1524 1525 1525 1525 1526 1526 1526 1527 1528 1528 1529 1530 1531 1531 1532 1533 1534 1534 1535
1515 1517 1518 1519 1520 1520 1521 1521 1522 1522 1523 1523 1523 1523 1523 1523 1523 1523 1523 1523 1523 1523 1523 1523 1523 1523 1523 1523 1524 1524 1524 1525 1525 1526 1527 1527 1528 1529 1530 1531 1531 1532 1533
1511 1512 1513 1515 1516 1516 1517 1518 1518 1519 1520 1520 1521 1521 1521 1521 1521 1521 1521 1521 1521 1521 1521 1521 1521 1521 1521 1521 1521 1522 1522 1522 1523 1523 1524 1525 1525 1526 1527 1528 1529 1530 1530
1506 1507 1508 1510 1511 1512 1513 1513 1514 1515 1516 1516 1517 1517 1518 1518 1518 1518 1518 1518 1518 1518 1518 1518 1518 1518 1518 1519 1519 1519 1519 1520 1520 1521 1521 1522 1522 1523 1524 1525 1526 1527 1527